Theta_e
306 311 311 314 320 312 304 308 309 307 306 306 306 307 307 306 306 306 306 303 298 302 306 303 302 301 300 300 298 298 298 295 294 293 292 292 292 291 290 290 289 289 289 289 288 288 288 288 288 288 289 288 288 289 288 288 287 287 286 285 284 284 283 282 282 281 280 279 278 277 276 276 275 275 274 274 274 273 273 273 272 272 272 271 271 272
308 310 311 312 312 305 302 304 304 305 307 306 306 307 307 306 307 305 302 301 299 300 306 304 301 301 299 299 299 298 299 297 295 294 293 293 292 291 291 291 290 290 289 289 288 288 288 288 288 288 288 288 288 288 288 288 287 287 286 285 285 284 283 282 282 281 280 279 278 277 276 276 275 275 274 274 273 273 273 272 272 272 272 271 271 271
314 309 306 303 302 301 302 303 304 307 308 306 305 306 309 308 306 305 300 300 299 299 302 302 299 300 299 299 299 298 299 298 295 294 294 293 293 292 292 291 291 291 290 290 289 289 288 288 287 287 287 287 288 288 287 287 287 286 285 285 284 284 283 283 282 281 280 279 278 277 276 275 275 274 274 274 273 273 273 272 272 272 272 271 271 271
313 307 303 299 300 303 304 303 305 306 306 307 307 307 311 307 304 308 305 300 300 299 300 301 298 299 299 300 301 297 294 295 294 294 293 293 294 293 292 292 291 291 291 291 290 289 288 288 287 287 287 287 287 287 287 287 286 286 286 285 284 284 283 283 282 281 280 279 277 276 276 275 274 274 274 273 273 273 272 272 272 272 272 271 271 271
308 302 299 299 301 304 304 303 303 304 307 309 308 307 311 307 302 306 304 299 303 301 298 300 303 306 304 305 309 300 293 295 293 293 295 293 292 292 292 292 292 291 292 291 291 291 289 288 287 287 287 287 286 287 287 287 286 286 286 285 284 284 283 283 282 281 279 278 277 276 275 274 274 274 273 273 273 273 272 272 272 272 271 271 270 270
306 298 296 301 302 303 305 305 304 305 307 310 309 305 306 305 301 302 301 300 306 306 299 299 307 313 309 308 309 304 299 299 295 295 298 294 292 292 292 292 291 291 291 291 291 291 290 289 288 288 287 287 286 287 288 287 286 286 285 285 284 284 283 283 282 280 279 277 277 276 275 274 274 274 273 273 273 272 272 272 271 271 271 270 270 270
302 297 297 302 304 303 304 304 303 303 306 309 307 301 301 302 300 301 302 302 307 308 299 298 305 309 307 305 305 302 302 302 300 301 303 297 293 293 293 292 292 292 291 291 290 289 289 289 288 288 288 287 287 288 288 287 286 286 285 285 284 284 283 283 282 280 279 277 276 276 275 275 274 274 274 273 273 272 272 271 271 271 270 270 270 269
301 299 299 301 303 302 302 305 303 302 308 310 303 298 300 301 301 301 300 301 304 303 299 297 300 305 306 306 302 299 303 306 306 308 309 304 299 296 294 293 292 292 292 291 291 290 289 288 288 288 289 288 288 289 288 287 287 286 285 284 284 284 283 282 281 280 278 277 277 276 275 274 274 274 273 273 272 272 271 271 271 270 270 270 270 269
301 303 304 302 303 302 304 305 302 302 305 306 299 298 300 299 300 300 300 304 301 299 304 301 298 304 309 307 302 299 304 309 311 312 313 312 309 304 299 296 293 291 291 291 291 291 289 288 289 288 289 289 289 288 288 287 287 286 285 284 283 283 283 282 281 279 278 277 277 276 275 274 274 274 273 273 272 272 271 271 270 270 270 269 269 269
300 302 302 302 305 306 305 301 299 302 302 300 297 298 299 298 300 299 302 305 300 301 309 305 298 303 310 309 306 304 305 310 314 315 315 314 313 310 307 303 297 291 290 291 289 288 288 288 289 288 288 289 288 288 287 287 286 286 285 284 283 283 282 281 280 279 278 277 276 276 275 274 274 273 273 272 272 271 271 270 270 269 269 269 269 269
300 298 299 302 303 302 302 298 296 299 300 298 298 299 300 299 298 299 302 302 302 308 310 302 297 301 308 310 310 308 306 308 311 311 313 314 312 311 308 303 299 294 293 292 289 288 287 288 288 287 287 288 288 287 287 286 286 285 284 283 283 282 282 281 280 279 278 277 276 276 275 274 274 273 272 272 271 271 270 270 269 269 269 269 269 269
301 300 302 302 300 298 299 300 296 296 298 298 299 302 303 304 300 302 306 303 306 316 308 298 298 300 305 310 311 310 306 305 306 305 308 310 308 307 304 299 296 295 294 292 291 290 288 288 288 287 287 288 287 287 287 286 286 285 284 283 282 282 281 281 280 279 278 277 276 276 275 274 273 273 272 272 271 271 270 269 269 269 269 269 269 269
306 303 302 299 298 298 299 302 299 298 301 300 301 307 309 312 311 311 313 309 311 313 301 297 300 300 303 306 306 307 305 303 303 302 303 304 303 305 303 299 296 293 293 292 291 291 289 288 288 287 287 287 287 287 287 286 285 284 284 283 282 282 281 280 280 279 278 277 276 276 275 274 273 272 272 272 271 270 270 269 269 269 269 269 269 269
312 305 301 299 300 297 297 304 303 301 302 300 302 310 312 312 313 315 314 309 309 308 297 295 300 301 305 306 304 305 304 302 301 300 300 300 301 303 300 296 294 293 293 292 292 292 291 289 288 288 288 287 287 287 286 285 285 284 283 282 281 282 281 280 279 279 278 277 276 276 275 274 273 272 272 271 271 270 270 269 269 269 268 268 268 268
311 309 303 301 301 297 296 300 301 302 303 300 300 303 309 312 311 312 314 312 310 307 300 296 301 308 312 308 303 302 302 300 299 298 298 299 297 295 296 296 296 296 296 294 294 293 291 289 289 289 288 288 288 287 286 285 284 283 282 282 281 281 281 280 279 278 278 277 276 276 275 274 273 272 272 271 270 270 269 269 268 268 268 268 268 268
306 307 302 297 297 296 298 297 295 300 303 299 296 300 307 310 309 308 307 305 303 304 304 301 303 307 308 304 302 302 301 301 302 301 303 306 301 297 300 300 298 298 297 295 295 294 292 290 290 290 289 289 288 287 286 285 284 283 283 282 281 281 281 280 279 278 278 277 276 275 274 273 273 272 271 271 270 270 269 269 268 268 268 268 268 268
305 306 301 297 297 295 296 296 295 300 303 299 299 304 303 299 304 306 302 298 297 303 307 303 304 305 304 306 307 306 306 305 305 305 306 308 305 301 301 299 297 297 296 295 295 294 292 290 290 290 290 289 289 288 287 286 285 284 283 282 281 281 280 279 279 278 278 277 276 275 274 273 273 272 271 271 270 270 269 268 268 268 268 268 268 268
303 308 302 297 299 296 293 296 296 296 300 302 303 304 299 295 301 305 302 304 305 307 306 303 306 308 306 310 311 307 307 306 305 305 305 304 302 299 298 297 296 296 295 295 294 293 291 290 290 290 290 290 289 289 288 287 286 284 283 282 281 281 281 280 279 278 278 277 276 275 274 273 273 272 272 271 270 269 269 268 268 268 267 267 267 267
302 308 305 296 298 299 294 297 300 296 295 300 301 299 298 300 306 305 302 307 308 306 307 304 304 305 306 310 311 305 304 304 302 303 302 300 298 297 296 295 295 295 294 294 293 293 292 291 291 290 290 290 290 289 288 287 286 285 284 282 281 281 281 280 279 278 277 276 276 275 274 273 273 272 271 271 270 269 268 268 267 267 267 267 267 267
300 304 307 299 296 298 297 299 305 302 296 296 298 297 298 301 305 305 301 304 306 305 307 305 303 305 308 309 308 303 302 301 300 299 298 297 296 296 295 295 294 294 294 293 293 293 292 291 291 290 290 290 289 289 288 287 286 285 284 282 281 281 280 279 278 277 277 276 275 274 273 273 272 272 271 270 269 269 268 268 267 267 266 266 266 266
301 302 307 304 297 298 301 301 304 306 303 301 301 301 301 299 300 300 298 301 305 306 307 306 304 306 307 305 305 303 301 299 298 297 296 296 296 295 295 295 294 294 294 293 293 293 291 291 291 291 290 290 289 288 288 286 285 284 283 282 281 280 279 278 277 277 276 275 275 274 273 273 272 271 271 270 269 268 268 267 267 266 266 266 266 266
301 301 307 307 302 303 304 298 296 300 302 305 307 306 305 303 302 302 301 299 300 303 306 305 303 304 306 305 303 301 299 297 297 296 295 296 295 295 295 295 294 294 293 293 293 292 291 291 290 290 290 289 288 288 288 287 285 284 283 283 281 280 278 278 277 276 275 274 274 273 273 272 272 271 270 270 269 268 267 267 266 266 266 266 266 265
300 301 304 306 303 302 299 293 293 296 296 299 301 300 302 304 305 306 306 302 299 298 299 299 300 303 303 304 303 301 297 296 296 295 296 295 295 295 295 294 294 294 293 293 293 292 291 291 291 290 289 289 288 288 288 287 286 285 284 282 281 279 279 278 277 275 275 274 273 273 272 272 271 271 270 269 268 268 267 267 266 266 266 265 265 265
300 302 302 305 306 301 296 293 293 294 294 297 298 297 299 302 302 303 303 301 300 299 299 299 301 302 300 301 303 301 297 295 296 296 296 295 294 294 294 294 293 293 293 293 292 291 291 291 291 290 290 289 289 288 288 287 286 285 284 283 281 280 280 278 276 275 274 273 273 272 272 271 271 270 269 269 268 268 267 266 266 266 265 265 265 265
300 305 304 304 307 306 304 304 301 298 296 298 299 296 296 298 299 298 296 296 299 301 300 301 302 301 301 300 300 299 296 295 296 295 295 294 294 293 293 293 293 293 292 292 292 291 291 291 291 290 290 290 289 289 288 287 286 285 284 283 282 281 280 278 276 275 274 273 272 272 271 271 270 270 269 269 268 267 267 266 266 265 265 265 265 264
300 304 303 303 306 306 307 309 308 305 301 299 298 297 295 296 297 299 300 298 299 300 299 301 302 300 300 300 298 297 297 295 295 295 294 294 293 293 293 292 292 292 292 292 291 291 291 291 290 290 290 290 289 289 289 288 287 286 285 284 282 281 280 278 276 275 273 272 272 271 271 271 270 269 269 269 268 267 267 266 266 265 265 265 264 264
300 300 300 304 307 305 305 304 301 301 301 299 299 299 298 296 295 298 301 301 301 299 298 300 300 298 298 298 297 297 296 294 295 294 294 293 293 292 292 292 292 292 292 292 291 291 291 290 290 289 289 289 289 289 289 288 287 286 285 284 283 282 280 278 276 274 273 272 271 271 271 270 270 269 269 269 268 267 267 266 266 265 265 264 264 264
301 301 300 302 303 301 301 300 297 297 298 297 297 298 299 298 295 296 298 299 300 300 299 299 299 298 298 297 296 296 294 294 294 293 293 292 292 292 292 292 292 292 291 291 290 290 290 290 290 289 289 289 289 289 288 288 288 287 285 284 283 282 280 279 276 274 273 272 271 271 271 270 269 269 269 269 268 267 266 266 265 265 265 264 264 263
303 302 298 298 300 300 298 297 296 296 296 296 297 297 298 297 296 296 297 297 297 297 298 298 298 298 297 296 295 294 294 294 293 292 292 292 291 292 291 291 291 291 291 290 290 290 290 290 290 289 289 289 288 288 288 288 287 286 285 284 283 282 280 279 277 275 273 272 271 271 270 270 269 269 269 268 267 267 266 266 265 265 264 264 263 263
300 304 299 296 299 300 297 297 296 296 297 298 297 297 296 295 296 295 295 295 294 295 295 295 295 295 294 294 294 294 294 293 292 292 291 291 291 291 291 291 291 291 290 290 290 290 290 290 289 289 288 288 288 288 288 287 287 286 285 284 283 282 280 278 276 275 273 272 272 271 270 269 269 268 268 267 267 267 266 265 265 264 264 263 263 263
295 301 299 296 300 301 300 299 297 296 297 297 298 299 297 296 296 295 294 294 294 296 295 294 293 294 293 294 294 293 293 292 291 291 291 291 291 291 291 291 291 290 290 290 290 290 289 289 289 288 288 288 288 288 288 287 287 286 285 284 283 282 280 278 276 275 274 273 272 271 269 269 268 268 268 267 267 266 266 265 264 264 264 263 263 262
295 298 296 297 302 303 301 300 298 295 294 296 299 300 298 298 298 298 298 298 297 297 297 296 296 295 295 294 293 292 292 292 291 291 291 291 291 291 291 291 290 290 290 289 289 289 289 289 288 288 288 288 288 287 287 287 286 285 285 284 283 282 280 278 276 275 274 273 272 270 269 269 268 268 267 267 267 266 265 265 264 264 263 263 262 262
295 299 299 298 302 305 302 298 296 296 298 300 298 297 297 297 298 298 299 297 296 295 296 297 297 295 294 293 292 292 291 291 291 291 291 290 290 291 291 290 290 290 289 289 289 289 289 288 288 288 288 287 287 287 287 287 286 285 285 284 283 282 281 278 276 275 274 273 272 270 269 268 268 268 267 267 266 266 265 265 264 264 263 263 262 262
292 297 298 295 300 307 303 297 297 300 304 303 298 295 296 296 297 297 296 295 295 294 295 296 294 293 292 292 292 291 291 291 291 290 290 290 290 291 291 290 290 289 289 289 289 288 288 288 288 288 287 287 287 287 287 286 286 285 285 284 283 283 281 279 276 275 274 273 272 270 269 268 268 267 267 267 266 266 265 265 264 264 263 263 262 262
295 296 297 294 297 303 301 300 303 305 303 300 298 297 295 295 297 296 295 295 295 294 293 294 292 292 292 291 291 291 291 291 291 290 290 290 290 290 290 289 289 289 289 288 288 288 288 287 288 288 287 287 287 287 287 286 286 285 285 285 284 282 281 279 276 275 274 273 272 271 269 268 268 267 267 266 266 265 265 264 264 264 263 263 262 262
299 299 297 295 296 298 299 300 304 303 299 297 299 298 295 295 296 295 293 295 296 294 293 292 292 292 291 291 291 291 291 291 290 290 291 291 291 290 289 289 289 288 288 288 287 287 287 287 287 287 287 287 287 287 287 286 286 286 285 284 284 282 281 278 276 275 275 273 272 271 270 269 268 267 267 266 265 265 264 264 264 264 263 263 262 262
297 298 297 296 296 296 297 299 301 300 297 296 297 296 294 294 294 294 293 293 294 294 292 291 291 291 290 290 291 290 290 291 290 290 291 292 290 289 288 288 288 288 287 287 287 287 287 287 287 286 287 287 287 287 287 286 286 286 284 284 283 282 280 278 276 276 276 274 274 273 271 270 268 267 267 266 265 265 264 264 264 264 263 263 262 262
294 296 297 297 296 296 297 300 302 303 302 298 295 294 293 293 293 292 292 293 294 293 292 291 291 291 290 290 290 290 290 290 290 290 290 290 289 288 288 287 287 287 287 287 287 287 286 286 286 286 286 287 287 287 287 286 286 285 284 283 282 280 279 278 278 278 277 276 275 274 272 271 269 268 267 266 265 265 264 264 264 264 263 263 262 262
294 296 297 298 299 298 298 301 302 304 303 297 293 293 293 292 291 290 291 295 295 292 291 291 290 290 290 290 290 290 290 290 290 289 289 289 288 288 287 287 287 287 287 287 287 286 286 286 286 286 286 286 287 287 286 286 285 285 283 282 280 279 278 278 279 278 278 277 277 275 273 271 270 268 267 266 266 265 265 264 264 263 263 263 262 262
297 297 297 299 301 298 297 300 301 301 299 294 292 293 292 290 290 290 291 295 295 292 291 291 290 289 290 289 289 290 290 290 290 289 289 288 288 287 287 287 287 287 287 287 287 286 286 286 285 286 286 286 286 287 286 285 285 284 283 281 279 278 278 279 279 279 278 278 277 275 274 272 270 269 268 267 266 266 265 264 264 263 263 262 262 261
297 297 294 295 299 298 296 299 300 299 297 293 292 293 292 290 291 291 291 291 292 291 291 290 289 289 289 289 289 289 289 289 289 288 288 288 287 288 288 288 288 287 287 287 287 286 285 285 285 285 285 286 286 286 285 285 284 284 283 281 279 279 279 280 279 279 278 278 276 275 274 272 270 269 268 267 266 265 265 264 264 263 263 262 261 261
296 296 293 293 297 296 295 297 299 298 295 291 291 293 292 291 291 291 290 291 291 291 290 290 290 289 289 289 289 288 288 288 288 288 288 288 288 288 288 288 288 287 287 287 286 285 284 284 284 284 285 286 286 285 284 284 284 283 282 280 280 280 280 280 280 279 279 278 276 275 274 272 271 269 268 267 266 265 264 264 263 263 262 262 261 260
295 296 296 296 295 292 294 298 298 297 294 291 291 292 291 291 291 290 290 291 291 290 290 289 289 289 288 288 288 288 288 288 288 288 288 288 288 288 288 288 288 287 287 286 284 283 283 283 283 284 285 285 285 284 284 283 282 282 281 280 280 280 280 280 279 279 279 278 276 275 274 272 271 269 268 267 266 265 264 263 263 262 262 261 260 260
293 293 295 296 294 294 297 300 297 295 294 292 291 291 290 290 290 290 290 290 290 290 290 289 289 289 288 288 288 288 288 288 288 288 288 288 288 288 288 288 287 286 285 284 283 282 282 283 284 284 285 284 284 283 282 281 281 280 280 279 279 279 278 278 279 279 279 278 276 275 274 272 270 269 268 266 265 264 263 263 262 262 261 261 260 259
293 292 293 294 294 294 295 295 294 293 293 292 291 290 290 290 290 290 290 289 289 290 289 289 289 288 288 288 288 287 287 287 287 287 287 287 288 288 288 287 286 285 284 282 282 282 282 283 284 284 283 282 281 280 280 279 279 279 278 278 277 277 277 277 278 279 278 277 276 275 273 271 270 268 267 266 265 264 263 262 262 261 260 260 259 259
292 292 292 293 294 293 292 292 292 291 292 291 291 290 290 290 290 289 289 289 289 289 289 289 288 288 287 287 287 287 287 287 287 287 287 287 287 287 287 286 284 283 282 281 281 282 282 283 283 282 281 280 279 279 278 278 277 277 276 276 276 276 277 277 278 279 279 277 276 274 272 270 268 268 267 265 265 264 263 262 261 260 260 259 258 258
292 292 291 291 291 291 292 292 291 290 290 290 290 290 290 289 289 289 289 289 289 289 288 288 287 287 287 287 286 286 286 286 286 287 287 287 286 285 284 284 283 282 281 281 281 282 282 281 280 280 279 278 278 277 277 276 275 275 275 275 275 276 277 278 278 279 278 277 275 273 271 269 268 266 266 265 264 263 262 262 261 260 259 258 258 257
291 291 289 289 289 290 291 291 289 290 290 290 290 290 289 288 289 288 289 289 289 288 288 287 287 286 286 286 285 285 286 286 286 286 285 285 284 283 283 282 281 280 281 281 281 281 280 279 278 278 277 277 276 276 274 274 273 274 274 274 275 276 277 277 277 276 276 275 273 272 270 269 267 266 265 264 263 263 262 261 260 260 260 259 259 258
290 289 288 288 288 289 289 289 289 289 289 289 290 289 288 288 288 288 288 289 288 287 286 286 286 285 285 285 285 285 285 285 284 283 283 283 282 281 281 281 280 280 281 280 279 278 278 277 277 277 276 275 274 273 273 273 273 273 274 275 276 275 274 274 274 274 274 273 272 271 270 268 267 266 265 264 263 262 262 262 261 260 260 260 260 260
288 288 288 288 288 288 288 288 288 288 288 288 288 287 287 288 287 287 288 287 286 285 285 285 285 284 284 285 285 284 283 281 281 281 281 280 280 280 280 280 280 280 279 278 277 277 276 276 275 275 274 273 272 272 272 272 273 273 274 275 274 273 272 272 272 272 272 272 271 270 269 268 267 266 264 263 262 261 261 260 260 260 260 260 260 259
287 287 288 288 288 288 288 288 287 287 286 286 286 287 287 287 287 286 285 284 283 284 284 284 284 284 284 284 283 281 280 279 279 279 279 279 280 280 280 279 279 278 277 276 275 275 275 274 274 273 272 272 271 271 272 272 273 274 274 273 272 271 270 270 270 271 271 271 271 271 269 268 266 265 264 263 262 261 260 259 259 259 260 259 259 258
Wind_Speed
4 2 1 4 5 4 4 4 5 5 5 5 4 2 3 3 5 5 2 4 1 1 7 7 8 15 19 19 14 6 6 8 10 10 10 10 8 7 7 8 8 8 13 19 20 20 23 25 27 29 31 33 36 37 38 36 36 34 33 32 32 30 27 25 24 22 20 19 17 16 16 16 16 16 16 16 17 16 16 16 16 16 16 17 16 15
5 1 4 5 6 5 4 4 5 5 5 4 4 1 2 3 6 5 0 3 2 0 6 4 5 14 19 20 12 4 6 9 10 11 12 11 9 8 8 10 9 8 12 15 18 22 23 24 26 27 28 31 34 37 38 38 38 36 35 35 35 32 29 27 25 23 22 20 18 17 17 16 16 16 15 16 16 16 16 16 15 16 17 18 17 15
4 3 5 4 5 5 5 4 5 5 5 3 3 1 3 3 4 5 2 3 2 1 5 4 5 14 20 19 10 5 8 7 7 9 9 9 9 9 8 9 9 9 11 12 15 20 22 24 25 26 29 32 34 36 36 38 38 37 37 38 36 34 31 29 26 24 23 21 18 18 17 16 16 16 15 16 16 16 16 16 15 15 17 19 19 17
2 5 3 3 4 6 5 3 5 4 2 2 3 1 4 3 1 4 3 3 2 3 5 6 6 10 15 13 7 3 4 3 3 5 6 6 8 9 7 7 8 10 12 12 13 16 18 20 23 26 30 32 32 34 36 37 38 39 40 40 38 36 33 30 28 25 23 20 18 18 17 16 16 16 16 16 17 16 16 16 15 16 17 19 19 18
4 3 3 4 3 5 4 1 4 3 2 2 4 4 5 3 2 5 3 5 4 2 3 6 7 6 6 7 5 3 3 3 3 4 6 6 6 6 5 7 9 10 11 12 13 14 14 17 22 26 28 29 31 34 38 39 40 41 42 41 39 37 34 31 29 26 22 20 19 17 16 16 16 17 17 16 17 16 15 16 16 16 17 18 19 19
3 2 4 5 3 4 4 2 3 4 1 4 4 7 6 3 2 3 4 5 4 3 2 4 6 5 3 5 7 3 5 5 3 3 7 7 5 5 7 10 10 10 11 11 13 16 15 18 21 23 25 28 31 36 38 38 39 40 41 40 39 37 35 32 29 26 23 21 20 19 18 17 17 16 17 17 17 16 16 17 17 17 17 17 18 18
1 1 2 4 4 4 3 2 5 5 4 3 3 4 5 3 1 4 4 3 1 3 3 3 0 5 5 6 7 5 7 9 5 4 7 5 5 6 8 10 9 9 10 9 12 14 17 20 20 22 26 29 32 36 35 35 37 39 40 40 39 37 36 33 30 27 24 23 22 21 21 20 19 19 19 19 18 17 17 17 18 18 17 17 17 16
3 3 2 3 4 3 1 3 5 7 6 3 3 3 3 1 4 2 1 1 2 3 3 1 3 3 5 6 6 5 7 9 7 6 7 5 6 7 9 9 9 10 9 8 9 11 14 20 21 24 28 29 30 33 32 33 36 37 38 39 38 37 36 34 31 28 26 25 24 23 22 22 21 21 20 19 18 17 17 17 18 18 18 17 17 15
2 4 5 5 4 2 4 4 6 8 3 3 3 2 2 1 1 2 4 2 1 3 4 2 2 2 5 6 4 3 4 7 7 6 6 5 5 6 8 9 10 10 8 7 8 11 14 20 23 25 27 28 29 30 31 33 34 34 36 36 37 37 36 35 32 29 28 26 25 23 23 23 22 21 20 18 18 17 17 18 18 18 18 18 17 15
0 3 6 6 4 5 4 2 4 5 1 2 4 3 4 4 3 3 3 2 2 2 4 4 1 1 4 6 4 2 2 3 6 5 5 6 6 6 7 8 8 7 6 6 7 13 18 22 25 25 25 28 29 28 29 30 31 32 33 34 36 38 37 36 33 31 29 27 26 25 24 24 23 21 19 18 18 17 17 18 19 18 17 17 17 15
1 1 2 3 2 4 3 1 1 3 2 3 3 2 2 4 3 2 2 3 3 2 5 4 1 1 2 5 4 1 1 2 3 4 5 5 5 6 5 6 6 6 6 6 7 12 19 24 26 24 25 29 28 26 27 29 30 31 32 34 36 38 37 36 34 32 30 28 27 27 26 24 23 21 19 19 19 19 18 18 18 17 16 16 16 16
3 1 1 1 1 3 4 3 1 2 2 2 2 2 2 3 3 3 3 3 2 4 5 3 2 1 1 5 4 4 5 4 3 5 7 6 7 8 6 5 6 5 6 7 7 10 14 19 22 21 24 28 26 25 27 29 30 31 32 34 35 37 38 37 35 33 32 30 29 28 26 25 23 21 20 20 20 20 19 18 17 15 15 15 15 16
2 2 2 2 0 2 3 1 2 3 3 3 2 3 3 4 3 3 3 1 2 4 2 2 2 0 4 8 9 9 10 6 5 6 6 7 8 9 9 8 7 6 7 8 8 9 10 12 18 20 22 25 25 27 29 29 29 31 32 34 36 39 39 38 37 35 33 32 31 29 27 25 23 21 21 21 20 20 20 18 16 15 14 14 15 16
3 3 2 1 1 1 2 3 1 2 1 1 1 2 1 1 3 4 4 3 4 3 2 2 2 2 4 7 7 9 9 5 3 4 5 6 7 8 9 9 9 9 8 7 7 8 8 12 17 20 23 25 26 28 28 28 30 31 32 34 36 39 39 38 38 36 35 34 32 30 27 25 23 22 22 21 21 21 21 19 18 17 16 16 16 16
1 4 1 1 1 2 1 2 2 2 2 2 2 4 3 3 1 4 4 3 6 4 2 3 2 2 3 4 4 5 7 5 3 3 3 4 5 6 7 8 8 9 8 7 7 8 10 15 19 21 24 26 27 28 27 28 30 30 32 35 37 39 39 39 39 37 36 35 33 30 28 26 24 23 22 21 21 21 21 21 19 18 18 17 17 17
1 4 2 1 2 1 1 1 2 3 2 1 1 3 1 3 3 2 3 3 2 4 3 2 2 4 4 6 6 4 3 3 3 3 4 5 4 4 6 7 7 8 8 7 8 8 12 18 21 22 24 27 28 28 28 30 30 31 34 35 37 40 40 39 39 39 38 36 33 31 29 27 25 23 23 22 22 22 22 22 21 20 19 19 19 19
1 4 3 3 2 2 1 2 1 1 1 0 1 1 3 3 5 1 2 1 3 2 4 1 2 5 4 6 7 5 5 5 6 6 7 7 7 6 7 7 7 8 9 9 8 9 12 18 21 23 24 27 28 29 29 31 31 31 33 35 37 39 39 40 41 40 38 36 33 32 30 27 26 25 24 23 23 23 23 23 22 22 21 21 21 22
1 3 4 2 1 1 1 1 2 2 2 3 1 3 2 2 4 3 1 4 3 2 5 1 3 5 3 4 5 7 8 8 7 8 8 8 8 8 8 8 9 9 8 9 9 9 12 16 20 23 26 27 29 29 30 32 31 30 33 35 36 38 40 42 42 40 38 36 35 33 31 29 28 26 25 24 23 24 24 24 24 24 23 22 23 23
2 2 6 1 1 3 2 1 2 3 3 3 3 2 1 1 1 1 0 2 2 3 6 3 2 2 3 4 3 5 6 7 7 8 9 9 9 8 9 10 11 10 9 9 10 9 11 16 21 24 27 30 31 31 31 31 30 30 32 34 36 39 41 41 40 39 39 37 36 34 32 30 28 27 26 24 24 25 25 26 25 25 24 24 23 23
2 1 4 3 2 2 3 1 2 2 3 3 1 2 2 3 3 1 1 2 1 3 5 3 1 2 5 5 3 4 5 4 6 8 7 9 9 7 8 9 10 10 10 10 10 10 11 16 22 25 27 30 32 32 32 31 29 30 31 33 35 39 39 37 38 39 39 37 36 34 32 31 29 27 26 25 24 26 27 27 25 25 25 25 24 23
2 2 4 4 2 1 1 2 4 4 2 2 1 1 1 0 1 1 1 2 2 2 3 4 4 4 4 4 4 4 4 5 6 7 6 8 9 7 7 8 9 10 10 10 10 9 11 16 22 25 27 29 30 31 32 30 29 30 30 32 35 36 36 37 39 39 39 38 36 35 34 32 30 28 27 25 25 26 28 27 26 25 25 25 25 24
1 2 3 3 4 2 3 2 3 5 5 4 3 4 3 2 2 1 3 1 2 2 4 3 7 7 4 3 4 1 4 5 5 6 7 10 11 10 9 9 10 10 10 10 9 8 10 15 20 24 26 27 28 30 31 31 30 30 31 32 33 34 35 38 39 38 39 37 36 36 35 32 30 28 27 26 26 27 28 27 27 26 25 25 25 25
1 3 1 4 5 3 2 2 0 2 4 4 2 2 3 3 4 3 4 3 0 1 2 1 4 7 4 3 3 2 3 3 6 7 10 13 12 11 11 11 12 11 10 10 8 8 12 17 20 22 23 25 26 28 30 31 31 31 32 32 31 33 36 38 37 36 37 36 36 36 34 32 30 29 27 27 27 28 28 28 27 26 25 26 25 25
1 2 1 4 5 3 3 3 2 2 3 2 1 1 3 2 3 5 4 3 2 2 1 1 4 5 3 2 4 3 1 5 8 10 13 13 12 12 11 12 12 11 11 9 7 10 14 18 19 20 22 24 26 28 29 30 31 31 32 32 31 33 36 36 35 34 35 35 36 36 34 32 31 30 28 28 28 28 28 28 27 27 26 26 26 25
1 0 1 3 6 6 5 5 5 4 0 2 1 0 2 3 5 2 2 3 1 5 6 4 7 4 2 3 5 5 6 10 11 11 12 13 13 12 12 12 12 11 10 9 10 12 14 16 17 18 21 23 25 27 28 30 31 31 32 32 31 33 35 34 33 33 34 34 35 36 35 34 33 31 30 30 30 29 29 28 28 27 27 26 26 25
2 1 2 0 3 4 5 5 3 2 2 1 1 1 3 3 5 2 1 2 2 5 6 5 8 8 6 10 11 9 9 12 13 13 14 13 13 12 12 13 12 11 10 10 13 14 13 13 15 17 20 23 24 26 28 30 31 31 32 32 32 33 34 33 32 32 33 34 35 36 36 36 35 33 32 31 31 30 29 29 28 28 28 27 26 25
2 1 2 5 6 7 8 6 1 2 2 4 4 4 5 4 5 4 2 2 3 2 3 6 9 13 15 14 11 9 10 12 12 13 14 14 13 13 12 12 12 10 8 10 12 13 13 13 14 17 21 23 24 26 28 29 30 31 32 33 34 33 32 32 30 31 32 34 35 36 38 38 37 35 34 32 31 30 30 29 29 29 28 28 27 26
4 2 3 6 9 11 9 7 3 2 3 7 6 6 6 4 5 5 5 7 3 1 4 7 7 11 16 14 11 11 11 11 11 12 13 13 13 13 12 13 12 9 8 10 12 12 13 13 13 16 20 23 25 27 29 29 29 29 30 32 33 32 31 30 29 30 32 33 35 38 40 39 38 36 34 32 31 30 29 29 29 30 29 28 27 27
5 3 3 3 8 11 8 9 8 3 5 5 4 8 8 4 7 8 10 10 4 3 9 11 9 12 15 15 13 11 10 11 12 12 12 13 13 13 15 14 11 9 10 13 14 13 13 13 12 15 20 23 25 27 28 29 29 29 30 31 32 31 30 28 27 29 31 33 36 40 40 38 36 35 33 31 31 30 30 30 30 30 30 29 28 27
4 3 2 1 6 11 9 8 6 3 3 4 5 8 7 6 9 9 10 10 7 9 14 15 15 16 14 13 11 9 9 10 10 11 12 14 14 15 16 14 10 10 13 15 16 14 13 13 14 17 20 22 24 26 27 28 29 29 30 31 32 32 30 26 25 27 30 33 37 39 38 36 34 33 32 31 31 31 31 31 31 30 30 29 28 26
1 2 1 2 4 9 6 4 3 3 3 4 7 7 4 3 5 5 6 6 5 8 12 11 13 13 9 7 9 10 10 9 10 12 14 14 15 16 15 12 10 12 16 17 17 15 14 14 15 17 19 21 24 26 26 26 29 30 30 31 33 34 32 26 24 26 28 33 35 36 35 34 33 33 33 33 33 33 32 31 30 29 29 28 27 25
1 1 1 4 3 6 3 6 6 2 2 2 5 7 6 3 2 3 4 5 5 8 10 7 6 7 5 6 10 12 11 11 11 13 13 14 17 17 12 9 10 15 18 18 17 16 16 16 16 17 20 23 26 27 27 27 29 31 31 31 34 35 33 28 24 25 28 31 31 31 33 34 34 34 34 34 34 33 32 30 29 29 28 27 26 24
2 2 1 2 1 6 4 6 8 5 4 1 1 4 6 5 4 4 4 5 6 6 5 5 4 5 7 10 13 15 15 14 12 11 12 15 17 14 9 8 13 18 18 17 17 17 16 17 19 22 25 26 28 28 29 29 30 31 32 33 34 35 34 29 26 25 28 29 29 29 30 32 34 35 35 35 34 33 31 30 30 30 30 28 27 25
2 4 2 1 1 5 8 8 7 4 2 3 3 3 4 7 6 5 7 11 10 4 3 4 5 7 11 11 13 16 17 17 14 11 12 14 12 9 9 13 17 19 18 18 17 17 17 20 25 28 29 29 29 30 30 30 31 33 33 33 34 35 33 30 27 26 27 28 28 29 29 31 33 36 37 36 34 33 31 32 32 32 31 30 28 26
3 4 1 1 2 4 6 7 7 3 3 6 4 1 4 6 7 7 8 12 11 3 1 5 8 10 13 12 13 14 16 18 17 14 14 13 7 5 12 16 17 18 18 18 17 18 20 25 29 30 31 32 32 31 30 29 31 34 33 32 33 33 32 29 27 27 28 27 27 28 29 31 33 36 37 36 34 33 33 33 33 33 33 31 30 29
5 4 2 1 1 2 3 5 3 5 5 3 4 5 6 3 4 6 7 9 8 1 3 7 10 12 14 15 14 13 15 18 17 12 10 7 5 9 13 15 15 16 16 16 18 20 24 29 31 32 34 34 33 32 30 29 31 33 33 32 32 31 30 27 26 28 28 28 28 28 29 31 33 35 35 35 34 33 34 34 35 35 34 32 31 31
6 4 1 1 1 1 0 1 4 5 4 3 4 5 5 4 5 5 6 7 4 2 3 9 13 15 16 16 15 14 14 16 16 10 4 2 7 12 13 14 15 16 18 21 25 27 30 33 36 37 37 36 35 33 29 28 31 32 31 31 31 29 26 24 26 29 29 29 30 30 30 31 33 34 34 34 34 35 36 36 37 37 35 32 31 31
3 2 2 2 0 2 1 3 4 4 3 2 2 5 5 7 7 4 3 5 2 1 5 11 13 16 17 17 18 16 13 14 15 10 5 6 11 13 14 16 18 19 21 25 28 31 35 37 40 42 40 36 36 35 29 29 34 33 30 31 30 26 23 23 28 30 31 31 32 32 31 31 33 34 34 34 36 37 38 37 37 38 36 34 33 33
5 2 3 3 1 2 2 0 1 2 3 3 4 8 8 6 5 2 0 4 4 4 10 12 13 16 16 17 17 15 12 11 13 13 12 15 17 15 14 17 22 24 26 27 28 30 36 42 44 43 38 35 36 34 28 31 36 34 30 30 28 23 22 26 31 32 33 34 34 33 32 32 33 35 35 36 38 39 38 37 36 35 34 34 34 33
5 5 3 2 1 1 3 1 2 4 3 2 5 10 9 1 4 4 5 6 6 9 12 12 14 16 15 15 15 12 10 11 12 15 18 20 21 20 19 20 22 26 29 30 30 32 39 44 42 38 37 38 36 31 29 34 36 33 29 27 23 21 25 30 34 35 35 35 35 34 33 32 33 35 36 38 39 38 37 36 34 33 34 34 34 32
3 3 1 2 1 2 3 2 3 4 3 4 8 11 9 2 5 5 8 8 9 14 13 12 15 15 14 14 12 10 11 13 14 17 19 19 19 21 24 26 27 27 27 28 30 34 39 42 38 36 38 37 31 28 31 33 32 29 28 24 21 25 31 35 37 37 37 36 35 34 33 32 33 35 37 38 37 36 34 34 34 34 35 34 32 31
2 1 2 1 1 1 2 2 3 4 3 3 8 9 6 5 4 6 9 9 10 13 14 14 14 13 13 15 13 12 15 18 19 19 18 18 18 19 22 26 27 25 25 26 30 35 38 39 38 37 36 32 28 28 30 29 28 29 28 25 25 32 37 38 38 39 37 36 35 34 33 33 33 34 35 35 34 33 33 33 34 34 33 32 32 31
1 0 2 2 2 0 1 1 2 3 3 5 11 8 5 5 6 9 10 10 10 12 14 14 13 12 13 15 17 19 20 21 21 20 19 19 20 20 22 24 21 20 23 26 31 37 38 37 36 34 30 28 28 28 27 28 31 33 31 29 33 38 40 40 40 39 37 35 35 34 34 33 32 32 33 33 33 32 32 33 33 33 32 31 31 30
1 2 2 3 1 2 1 1 1 4 5 6 8 6 6 8 8 8 8 10 11 12 12 12 13 14 15 17 20 22 21 20 20 20 20 21 21 21 22 21 19 21 26 30 34 39 40 35 32 30 29 29 29 30 32 33 34 35 35 36 39 43 44 44 43 40 36 34 33 33 33 32 30 30 31 31 31 31 31 32 32 32 31 31 30 29
2 3 1 4 2 0 3 6 5 6 7 5 4 6 11 12 8 6 8 10 11 11 11 11 14 17 18 19 21 21 19 18 20 21 21 21 21 20 18 19 22 25 29 32 36 40 39 33 29 28 30 32 34 37 39 37 34 35 39 42 45 45 45 44 42 38 34 32 32 32 31 29 28 28 29 30 30 31 31 32 32 32 31 30 30 29
2 2 1 1 3 5 5 6 6 7 8 8 8 10 11 10 8 9 11 12 12 11 11 11 14 16 17 17 18 18 18 19 21 22 21 19 17 17 17 20 25 28 31 34 37 38 35 30 29 30 32 36 41 41 40 38 36 36 41 45 46 45 43 42 40 37 33 32 32 30 27 25 25 26 28 29 30 32 32 32 33 33 31 30 30 30
3 3 3 3 6 6 4 5 9 10 10 13 14 11 9 10 11 12 13 14 14 13 12 13 15 16 16 16 17 18 20 21 21 20 19 16 16 17 18 21 25 29 33 34 34 35 34 30 30 34 35 37 41 42 40 41 41 41 43 44 44 43 43 40 37 34 31 30 29 26 23 23 23 24 26 28 29 30 29 29 32 33 32 31 31 29
4 5 5 5 5 5 7 10 13 13 11 11 10 8 9 13 15 15 14 14 13 13 16 18 17 15 14 16 18 19 20 20 19 19 18 16 15 16 18 22 27 31 34 34 33 35 35 33 34 37 36 36 40 43 43 44 44 43 43 44 43 40 36 34 32 30 29 28 26 24 23 23 24 24 25 26 29 30 30 29 31 33 35 35 34 32
4 4 5 6 5 5 7 10 15 16 12 8 6 9 13 15 17 18 16 14 13 15 17 19 18 18 18 19 18 18 18 19 19 21 21 17 16 18 22 27 30 31 31 33 38 40 39 37 37 37 35 37 41 45 46 45 44 43 44 43 38 31 30 31 32 30 28 27 25 23 23 23 24 24 24 25 28 30 32 32 33 35 36 35 34 32
4 5 5 6 6 6 7 10 12 14 13 11 14 18 17 16 18 18 16 15 17 17 16 17 21 24 24 22 18 16 17 20 22 23 21 17 18 22 27 29 29 30 33 38 42 44 42 38 37 36 36 39 42 44 44 42 42 45 43 35 28 28 31 33 32 29 28 27 24 23 23 23 24 24 24 25 27 28 28 28 29 31 32 31 30 28
5 5 6 6 6 9 11 11 9 9 12 17 20 20 17 16 17 18 19 20 19 17 17 17 20 23 22 23 27 25 20 22 27 25 20 18 22 26 27 27 28 31 37 40 39 39 40 39 38 39 40 41 42 43 41 41 42 42 34 26 26 31 33 34 31 28 27 27 26 26 24 22 22 22 23 25 27 28 27 23 21 23 24 25 26 25
Wind_Direction
78 81 185 207 216 204 189 165 149 143 120 119 127 151 210 243 274 256 250 292 303 282 268 240 243 267 272 274 271 248 201 220 240 244 245 243 238 234 231 238 239 237 251 260 266 263 257 256 254 252 250 249 247 246 244 242 242 241 239 238 239 241 242 243 246 251 256 260 265 271 276 284 292 297 302 310 315 317 319 320 320 316 315 315 310 302
68 104 232 219 207 180 150 134 105 91 82 88 127 184 265 223 258 263 185 310 353 82 270 257 266 274 276 278 277 220 198 225 229 230 240 239 238 239 235 243 245 248 263 269 268 263 257 255 253 250 249 247 246 245 243 241 241 240 238 239 240 241 241 243 247 250 254 258 263 269 275 282 290 293 297 303 308 311 312 313 312 309 308 311 313 306
24 235 229 200 169 116 80 82 82 87 95 83 117 143 288 251 270 292 343 344 358 216 278 309 306 282 279 283 285 223 214 233 229 226 237 236 236 239 236 243 252 259 266 267 265 263 258 255 253 249 247 246 245 246 244 242 241 238 237 239 240 240 240 243 247 248 253 259 264 269 275 280 286 290 293 297 301 302 304 304 302 302 301 304 311 310
313 247 208 157 141 102 70 52 83 98 114 115 125 145 272 278 308 281 319 343 264 231 284 300 295 277 281 294 306 271 244 274 287 255 248 240 237 242 241 243 246 253 260 265 268 266 259 254 250 246 246 246 245 244 244 242 240 238 238 238 239 239 240 242 245 247 252 258 262 266 272 277 280 284 287 290 293 294 295 294 293 293 295 299 306 311
241 243 132 118 102 109 123 110 110 123 315 285 179 191 239 257 234 234 288 323 297 295 308 306 303 275 289 316 306 318 350 318 304 287 266 251 245 253 260 251 242 243 252 260 266 269 262 253 250 248 247 247 244 244 244 242 240 239 239 239 239 239 240 242 244 246 249 251 253 257 261 266 269 274 278 279 282 286 286 284 286 288 291 296 303 309
243 221 131 122 79 94 133 206 192 156 314 304 235 209 205 198 235 271 327 341 347 339 321 358 336 291 321 319 283 312 347 314 301 273 265 255 244 244 251 252 246 244 248 250 257 266 267 260 257 255 252 246 244 247 248 245 243 242 241 240 240 240 240 241 242 243 244 245 247 248 248 252 256 260 267 272 277 282 281 280 283 285 288 294 301 304
195 78 110 135 118 91 97 253 237 156 122 299 258 190 161 137 310 319 345 0 343 282 286 65 263 270 315 312 290 324 325 307 308 273 266 259 238 229 239 250 249 247 248 246 251 260 264 264 260 257 254 247 246 252 252 248 246 244 243 241 240 240 239 240 240 239 240 241 244 245 247 252 253 256 267 277 280 280 279 278 279 282 286 291 297 296
141 102 85 117 107 102 119 257 226 142 120 248 228 132 107 11 299 291 111 186 241 277 316 54 172 255 301 286 289 328 319 317 328 302 285 268 241 232 236 246 247 248 249 249 255 257 258 260 258 256 258 254 253 257 254 249 248 245 243 242 240 240 239 239 238 237 238 240 242 245 248 251 254 259 269 278 279 276 275 273 274 278 282 287 291 285
140 159 190 158 115 179 221 227 189 148 131 245 190 122 67 35 268 154 135 181 281 347 319 287 155 220 273 274 305 347 335 324 317 298 290 278 254 242 243 247 248 253 255 252 258 264 264 264 262 261 264 265 262 259 255 252 251 248 245 242 240 238 237 237 236 236 238 240 242 244 245 248 253 260 268 272 272 270 268 267 269 274 278 282 285 274
125 199 194 152 149 217 227 236 175 150 146 197 138 97 66 64 59 83 107 127 54 2 265 250 167 179 270 284 310 4 14 301 284 280 275 274 271 258 257 260 262 271 275 265 259 265 268 269 270 271 271 270 265 261 257 255 252 248 245 240 238 237 235 235 234 235 237 239 240 241 243 246 251 257 263 265 265 264 263 263 265 269 272 276 278 266
333 301 191 139 181 199 150 61 145 127 125 152 113 59 42 42 42 50 75 92 62 299 257 253 241 104 303 283 264 230 197 211 261 300 288 286 299 288 279 281 286 293 289 284 276 272 275 278 279 277 271 269 266 261 257 253 249 246 242 238 237 236 234 233 233 234 237 238 238 240 243 245 250 255 257 258 258 260 259 259 260 263 265 268 268 259
352 22 239 271 230 140 105 69 36 64 96 117 73 24 343 342 15 17 354 46 76 263 265 281 291 117 220 270 258 251 262 223 217 279 292 307 317 309 308 304 295 295 293 295 293 286 289 291 289 282 272 270 266 259 254 250 246 243 240 237 234 234 232 231 232 234 235 236 237 239 242 245 249 253 253 254 257 258 257 256 256 257 259 260 257 252
309 228 271 327 4 112 116 103 356 9 48 71 57 43 7 339 353 344 317 314 222 237 275 333 324 209 230 259 266 270 282 273 228 245 274 299 305 305 313 316 311 308 301 299 296 295 296 294 293 290 282 277 270 261 256 250 246 242 239 235 233 233 232 230 231 232 234 235 236 238 241 244 248 250 251 254 256 256 255 253 253 253 252 251 248 246
326 296 344 45 314 39 123 166 268 330 66 141 187 111 80 15 354 307 285 298 280 260 314 327 306 282 267 271 261 257 277 295 264 247 250 264 279 292 303 309 308 305 300 296 292 292 291 288 292 293 290 285 278 271 263 255 249 244 240 236 233 234 233 230 231 232 233 234 236 239 240 243 246 247 250 253 253 254 253 251 250 249 250 250 248 243
337 297 322 125 276 356 77 185 172 140 124 191 179 123 143 163 187 267 251 274 290 297 320 309 280 195 221 273 262 246 272 300 306 280 268 265 270 288 300 303 302 302 303 302 295 290 289 293 296 296 295 291 286 280 272 263 255 246 241 238 235 235 233 231 231 231 232 234 236 238 239 242 244 246 249 251 252 252 250 250 249 249 250 248 246 243
174 263 269 304 285 74 54 238 126 101 91 247 152 106 151 178 159 236 212 190 292 324 305 274 239 213 225 282 301 306 312 343 355 348 351 333 325 333 319 313 311 308 310 310 308 304 302 305 307 304 301 299 294 288 279 270 260 251 246 242 239 238 236 234 233 232 233 234 235 236 238 240 242 244 246 248 249 249 248 250 249 249 249 246 244 243
7 279 299 337 339 69 128 243 42 40 218 147 107 179 224 171 120 107 280 27 60 319 279 233 248 284 318 308 309 348 11 14 8 358 359 349 346 350 331 319 315 312 313 311 307 303 304 309 312 312 310 306 302 296 287 279 270 260 253 247 243 242 238 236 235 234 234 234 233 235 236 238 239 241 244 247 248 248 248 248 248 249 249 246 243 242
141 279 303 10 41 345 205 200 13 18 117 107 171 227 225 105 85 96 298 347 32 269 272 225 240 291 340 302 314 5 3 348 351 354 354 347 343 339 324 316 313 311 310 305 304 305 309 314 317 319 319 316 311 305 297 291 281 270 262 254 248 246 242 240 237 235 235 233 232 233 234 236 238 241 244 247 248 248 245 244 246 248 248 245 242 241
113 285 306 338 184 302 3 87 348 355 57 102 189 214 83 136 284 52 87 312 340 292 282 258 232 267 237 243 302 349 332 326 339 353 350 335 329 327 318 316 317 319 320 317 319 319 321 325 326 327 326 324 321 315 308 301 290 279 270 261 254 252 250 246 241 238 235 233 233 234 235 237 239 241 243 244 245 245 244 244 245 246 246 244 241 240
101 108 291 277 219 302 12 98 239 307 23 38 23 354 38 157 191 168 145 181 210 285 288 291 329 255 236 210 198 281 306 350 354 345 333 316 316 315 309 313 321 325 326 323 323 323 325 327 328 329 327 325 324 321 315 308 298 287 278 269 262 257 254 248 243 239 235 234 233 233 234 236 238 239 241 242 242 242 243 245 245 245 244 242 240 239
55 120 255 291 312 297 293 212 196 179 133 71 56 319 323 194 179 230 206 148 154 225 260 289 289 256 242 205 200 270 335 33 1 324 305 310 322 321 311 316 324 327 324 321 321 321 323 325 326 328 327 325 325 323 320 314 305 296 286 277 269 262 255 251 246 240 236 234 232 232 233 235 236 238 238 239 240 240 243 245 244 244 243 241 240 240
57 152 215 294 314 262 246 248 187 176 164 152 178 199 187 155 132 259 289 272 112 179 195 253 286 273 241 194 200 221 46 25 330 307 315 329 336 334 327 326 327 325 322 320 320 320 323 326 326 326 325 326 326 325 323 320 312 303 294 285 277 266 259 255 249 242 238 235 232 232 234 235 236 237 237 238 238 238 242 243 242 242 241 239 240 242
143 108 129 269 266 255 270 313 95 169 146 132 163 178 147 134 132 161 249 254 147 237 191 138 278 275 261 182 178 144 81 347 311 325 339 337 335 335 332 329 327 322 318 318 319 324 329 329 329 328 328 330 330 327 324 321 315 308 301 293 282 271 266 260 252 245 240 236 234 235 234 235 236 236 236 236 237 238 241 242 242 241 239 239 242 245
114 85 30 280 284 322 354 0 14 44 97 115 305 129 144 160 142 161 197 189 181 221 192 353 272 268 270 195 185 182 356 336 335 347 344 333 329 332 329 326 323 320 319 320 322 329 332 333 334 335 336 335 333 330 327 323 318 313 307 300 289 280 275 266 255 248 242 238 237 236 234 235 235 233 234 235 236 238 239 241 241 240 239 240 243 247
244 177 55 331 324 335 350 355 348 343 39 187 236 225 177 132 99 110 163 108 266 225 184 216 265 253 233 283 305 332 351 348 345 343 337 328 326 327 326 325 321 319 321 325 332 335 335 336 337 337 337 336 334 333 331 328 324 318 313 307 297 289 283 273 260 251 245 240 239 236 234 234 233 231 232 234 236 237 238 239 239 239 240 241 244 248
230 192 123 125 303 301 303 312 305 279 271 225 144 220 230 168 140 167 191 102 269 240 177 195 266 277 291 305 316 334 347 343 337 334 330 324 321 323 324 321 318 321 325 330 336 335 333 333 333 333 335 335 334 334 333 332 329 326 321 315 308 299 289 279 265 254 246 242 239 236 235 233 231 230 231 233 234 236 237 237 237 237 239 241 245 248
89 199 199 185 204 234 254 263 218 98 308 287 275 247 228 195 158 131 101 179 206 226 205 221 257 281 293 298 307 327 337 333 328 326 321 316 317 320 316 312 313 316 321 329 333 329 327 329 329 330 333 333 333 334 333 332 332 331 327 323 318 309 297 285 270 257 248 243 239 237 236 234 231 230 231 233 234 236 236 236 236 237 238 240 244 248
85 286 247 203 227 246 262 278 309 52 276 264 268 267 248 197 158 153 206 233 210 14 277 238 238 275 287 294 310 324 326 322 318 316 313 310 313 313 309 308 310 310 315 325 327 325 325 324 324 327 329 331 332 332 331 330 331 332 330 326 324 317 306 293 276 260 251 245 240 238 237 235 232 231 232 233 234 235 236 235 236 236 237 239 242 245
122 252 258 201 257 271 277 283 281 265 264 261 250 264 262 210 176 190 229 244 223 234 264 263 269 278 284 295 309 314 311 311 311 308 306 306 308 311 312 312 312 313 321 327 327 327 325 322 323 326 327 329 330 329 328 328 328 332 332 330 328 325 316 302 281 265 255 247 243 242 239 236 233 231 232 232 233 234 234 234 235 235 235 237 238 241
147 237 252 168 285 284 276 282 280 234 274 300 267 259 258 226 206 210 239 256 240 238 258 273 283 282 280 288 295 297 298 301 303 303 303 306 311 314 314 315 317 320 325 329 329 326 322 320 321 323 323 326 326 326 326 325 327 329 329 330 331 329 325 312 288 272 260 251 249 246 241 237 233 231 231 231 231 232 233 233 233 233 234 236 237 238
179 251 225 105 309 290 292 347 27 144 186 273 284 289 294 259 234 224 244 262 257 254 261 270 282 282 274 277 288 295 302 307 309 310 310 311 313 314 313 314 317 322 326 328 325 321 320 319 320 321 322 323 323 324 323 323 324 325 326 328 330 330 329 318 297 280 267 259 256 250 242 237 233 231 231 231 231 232 232 231 230 232 234 235 236 235
144 234 22 54 345 289 319 11 346 283 179 263 305 335 340 313 261 224 225 226 230 259 279 285 281 280 287 302 304 305 309 312 312 313 314 313 312 312 310 309 316 324 327 325 322 321 321 320 320 321 322 322 323 323 323 324 324 323 324 325 326 327 328 320 304 289 277 269 261 252 244 238 233 231 231 230 231 231 230 229 229 231 233 233 234 232
125 137 96 55 312 274 305 337 316 329 43 1 314 17 343 299 273 272 271 259 237 237 273 282 261 280 308 318 316 315 318 318 316 316 313 309 309 308 305 314 324 326 325 322 321 321 320 319 318 318 318 319 320 320 321 323 322 319 319 319 320 323 324 319 308 295 285 276 265 255 246 239 234 233 231 231 230 229 227 226 227 229 229 230 231 230
91 109 134 150 189 274 299 325 328 359 35 254 207 94 343 297 278 278 284 284 273 232 211 270 286 305 313 318 318 317 318 316 314 313 310 305 302 307 321 328 329 326 323 322 322 320 319 317 314 313 313 314 314 314 315 317 316 313 313 313 315 318 319 316 308 296 287 279 268 258 249 241 237 235 233 232 230 227 225 225 226 227 228 228 229 229
112 104 121 152 155 268 311 358 358 320 244 248 234 240 302 278 252 251 261 270 274 273 1 309 309 313 315 319 319 315 313 309 309 311 307 299 296 325 331 329 326 322 321 322 320 318 316 314 312 311 311 311 310 309 308 310 311 309 307 308 310 312 314 313 305 297 289 280 271 261 250 243 240 237 235 233 230 228 227 226 226 227 227 227 227 228
135 135 142 156 179 287 356 32 343 269 258 305 326 316 316 312 291 300 297 273 255 202 22 328 316 319 322 321 317 314 309 305 306 306 291 285 328 344 329 322 320 317 317 316 313 312 312 312 311 309 308 307 306 303 300 302 307 305 301 301 303 305 309 308 301 297 292 283 275 266 254 246 241 237 235 232 229 227 226 226 226 227 227 227 228 229
131 138 147 251 203 136 117 263 281 299 326 16 6 332 318 304 297 302 303 289 250 149 10 336 327 325 324 319 315 315 314 308 307 305 267 264 335 331 316 311 312 310 311 312 311 311 311 311 311 309 306 305 303 299 295 299 306 304 296 294 294 296 301 302 297 295 293 287 280 272 260 250 243 238 235 230 226 226 226 226 227 228 226 225 226 228
90 134 168 191 253 87 71 305 329 339 314 233 281 306 289 265 255 222 239 292 274 164 345 340 333 326 323 321 319 321 322 314 307 307 314 318 322 320 311 307 308 307 309 311 312 312 313 314 313 310 307 304 301 298 297 303 309 306 295 288 288 289 294 296 294 293 291 289 286 279 266 254 245 239 235 230 227 227 227 227 228 228 226 225 225 228
39 34 113 110 6 63 102 300 286 267 253 230 278 313 315 276 237 167 8 283 267 313 341 341 331 325 323 318 318 321 322 313 304 307 322 324 320 319 315 311 312 312 312 311 311 312 313 314 313 310 308 306 302 301 305 310 312 307 297 290 288 289 293 294 294 294 291 289 289 282 269 257 247 240 235 232 230 230 229 227 227 227 226 226 228 230
24 7 43 76 288 162 135 185 238 241 255 272 308 322 325 260 136 56 340 288 292 328 340 337 326 324 321 315 315 316 310 304 301 306 316 318 315 313 312 310 311 311 311 311 312 314 314 313 313 312 311 308 306 308 314 315 313 310 305 299 294 291 292 296 298 297 293 290 288 281 270 258 248 241 237 234 233 232 230 227 226 224 223 225 227 229
18 3 43 123 192 186 164 210 276 268 262 315 329 327 327 18 83 21 317 298 319 327 327 329 324 320 318 315 314 308 300 298 297 301 306 308 307 306 306 305 303 303 304 306 312 316 316 313 312 310 309 308 310 314 317 315 313 313 311 305 296 292 296 299 301 299 295 290 285 278 269 259 249 243 240 237 234 232 229 226 223 222 221 222 223 224
31 11 1 76 159 153 157 195 300 285 238 334 338 331 345 11 4 313 300 306 319 318 318 324 322 318 318 315 308 304 303 302 302 302 303 303 301 300 301 302 302 303 305 310 316 320 318 314 312 310 310 314 317 317 319 320 317 315 312 305 298 299 302 303 301 299 295 289 283 277 269 260 251 244 240 237 232 229 227 224 222 221 219 218 219 221
115 111 321 276 198 105 20 35 346 288 264 355 354 347 5 1 307 292 304 310 310 315 319 318 317 319 320 315 310 309 308 306 306 306 304 303 302 299 298 300 303 309 314 317 321 322 319 314 310 310 314 319 320 321 326 327 320 315 312 307 305 307 307 305 302 300 296 289 282 276 269 260 252 245 239 234 229 226 224 222 219 217 217 215 215 217
89 81 344 276 207 77 353 276 299 293 296 349 3 335 311 309 295 293 308 310 313 321 320 315 319 323 322 317 312 309 307 307 307 306 306 305 303 300 300 306 315 321 321 322 323 322 318 312 308 312 318 322 324 327 329 326 318 314 312 310 311 311 309 305 303 300 295 289 282 277 270 261 252 245 237 232 226 222 221 220 216 214 214 213 212 213
37 67 183 236 229 164 250 256 272 297 306 322 335 306 302 305 303 301 306 309 314 319 318 317 321 321 320 316 311 307 307 307 306 305 305 302 300 303 311 320 323 322 323 324 322 319 315 312 313 319 322 323 324 324 323 322 319 315 313 313 313 311 307 305 303 300 295 290 283 277 270 260 252 245 237 230 224 220 219 217 212 210 210 210 210 212
342 20 149 211 307 298 268 268 289 305 313 312 310 308 307 310 320 323 319 314 310 310 314 317 316 314 314 312 308 305 306 306 304 304 303 302 307 317 324 322 320 322 325 324 320 319 321 322 324 325 322 321 322 322 322 323 322 317 313 313 312 310 307 305 301 298 295 291 285 278 269 258 250 243 237 230 224 221 219 215 211 209 207 206 208 211
318 353 14 9 339 317 298 306 312 316 319 314 311 310 313 321 325 322 316 310 307 311 317 316 311 310 311 311 309 305 303 304 305 306 311 319 325 326 324 321 322 324 324 322 321 326 330 331 327 324 321 320 322 325 325 325 323 318 315 314 312 309 307 305 304 302 300 296 291 283 270 257 247 241 236 229 223 220 218 214 212 208 204 203 206 208
326 6 9 349 329 296 277 293 307 311 306 299 302 318 328 324 318 313 309 305 306 314 316 313 311 313 315 313 309 303 302 308 316 321 324 326 325 322 323 323 322 321 321 324 328 332 333 330 325 322 321 322 325 327 326 323 321 319 317 314 312 313 316 321 324 322 316 308 300 289 275 263 252 245 237 229 222 218 214 211 209 207 208 210 211 209
312 358 346 318 304 277 276 305 322 321 308 295 312 327 323 317 314 313 313 313 317 320 316 314 316 317 313 308 305 307 315 325 331 330 326 324 325 326 323 320 319 320 325 330 332 330 328 325 322 321 321 324 325 324 322 319 318 318 316 313 318 331 342 342 338 333 325 316 305 292 280 269 259 250 240 230 223 220 219 217 212 211 214 218 220 221
341 353 340 329 325 312 312 327 335 328 318 318 326 325 321 319 318 320 325 329 327 323 320 322 323 319 314 313 321 331 334 332 331 328 324 322 322 319 316 318 323 328 332 332 329 326 324 323 323 324 323 322 321 319 317 315 316 315 315 320 336 352 352 343 337 332 326 318 307 294 284 272 262 253 242 231 223 218 217 218 218 217 219 221 223 227
348 341 339 334 314 301 306 318 334 330 313 312 318 320 321 324 326 329 332 328 321 321 326 326 323 320 321 330 339 342 339 332 328 325 318 312 313 315 320 327 333 332 330 329 327 325 323 324 326 325 321 319 319 317 315 314 314 314 319 337 354 353 347 343 338 331 324 317 307 297 286 273 262 254 242 232 224 214 208 207 212 217 222 223 225 228